Dublin, Ireland

12:18 AM GMT on November 22, 2017 (GMT +0000)
Dublin International

Weather History for EIDW - September, 2014

Change the Weather History Date:

Thursday, September 4, 2014

  Actual Average Record
Temperature  
Mean Temperature 58 °F -  
Max Temperature 71 °F 61 °F 73 °F (2004)
Min Temperature 45 °F 49 °F 44 °F (2000)
Degree Days  
Heating Degree Days 7    
Growing Degree Days 8 (Base 50)    
Moisture  
Dew Point 53 °F    
Average Humidity 83    
Maximum Humidity 100    
Minimum Humidity 54    
Precipitation  
Precipitation 0.00 in 0.09 in - ()
Sea Level Pressure  
Sea Level Pressure 30.09 in    
Wind  
Wind Speed 4 mph ()    
Max Wind Speed 12 mph    
Max Gust Speed -    
Visibility 8.9 miles    
Events Fog    
Averages and records for this station are not official NWS values.
T = Trace of Precipitation, MM = Missing Value Source: Averaged Metar Reports

Daily Weather History Graph

Daily Weather History Graph

Search for Another Location

Airport or City:

Trip Planner

Search our weather history database for the weather conditions in past years. The results will help you decide how hot, cold, wet, or windy it might be!

Date:

Astronomy

Sep. 04, 2014 Rise Set
Actual Time 6:39 AM IST 8:07 PM IST
Civil Twilight 6:02 AM IST 8:43 PM IST
Nautical Twilight 5:18 AM IST 9:28 PM IST
Astronomical Twilight 4:28 AM IST 10:17 PM IST
Moon 4:59 PM IST (9/4) 12:48 AM IST (9/4)
Length of Visible Light 14h 41m
Length of Day
13h 28m
Waxing Gibbous, 72% of the Moon is Illuminated
Sep 4
Waxing Gibbous
Sep 9
Full
Sep 16
Last Quarter
Sep 24
New
Oct 1
First Quarter

Hourly Weather History & Observations

Time (IST) Temp. Dew Point Humidity Pressure Visibility Wind Dir Wind Speed Gust Speed Precip Events Conditions
12:00 AM 54 °F 52 °F 90% 30.15 in 12 mi SE 4.5 mph - -   Partly Cloudy
12:00 AM 53.6 °F 51.8 °F 94% 30.12 in 6.2 mi SE 3.5 mph - N/A   Scattered Clouds
12:30 AM 51.8 °F 51.8 °F 100% 30.12 in 6.2 mi Calm Calm - N/A   Scattered Clouds
1:00 AM 51 °F 51 °F 99% 30.14 in 12 mi Calm Calm - -   Mostly Cloudy
1:00 AM 51.8 °F 50.0 °F 94% 30.12 in 6.2 mi Calm Calm - N/A   Mostly Cloudy
1:30 AM 51.8 °F 51.8 °F 100% 30.12 in 6.2 mi Calm Calm - N/A   Scattered Clouds
2:00 AM 49 °F 49 °F 100% 30.13 in 12 mi Calm Calm - -   Partly Cloudy
2:00 AM 50.0 °F 50.0 °F 100% 30.12 in 6.2 mi Calm Calm - N/A   Scattered Clouds
2:30 AM 48.2 °F 46.4 °F 93% 30.12 in 6.2 mi Calm Calm - N/A   Scattered Clouds
3:00 AM 49 °F 49 °F 100% 30.12 in 12 mi West 2.2 mph - -   Scattered Clouds
3:00 AM 48.2 °F 48.2 °F 100% 30.09 in 6.2 mi West 1.2 mph - N/A   Partly Cloudy
3:30 AM 50.0 °F 50.0 °F 100% 30.09 in 6.2 mi WNW 2.3 mph - N/A   Partly Cloudy
4:00 AM 49 °F 49 °F 99% 30.12 in 12 mi Calm Calm - -   Scattered Clouds
4:00 AM 48.2 °F 48.2 °F 100% 30.09 in 6.2 mi Calm Calm - N/A   Partly Cloudy
4:30 AM 48.2 °F 48.2 °F 100% 30.09 in 6.2 mi NNW 1.2 mph - N/A Fog Shallow Fog
5:00 AM 48 °F 47 °F 96% 30.11 in 5 mi Calm Calm - - Fog Patches of Fog
5:00 AM 46.4 °F 46.4 °F 100% 30.09 in 5.0 mi Calm Calm - N/A Fog Fog
5:30 AM 46.4 °F 46.4 °F 100% 30.09 in 6.2 mi Calm Calm - N/A Fog Shallow Fog
6:00 AM 48 °F 48 °F 98% 30.11 in 11 mi North 2.2 mph - - Fog Patches of Fog
6:00 AM 48.2 °F 48.2 °F 100% 30.09 in 6.2 mi North 1.2 mph - N/A Fog Shallow Fog
6:30 AM 48.2 °F 48.2 °F 100% 30.09 in 6.2 mi East 1.2 mph - N/A Fog Shallow Fog
7:00 AM 48 °F 48 °F 100% 30.11 in 12 mi NNE 2.2 mph - - Fog Patches of Fog
7:00 AM 48.2 °F 48.2 °F 100% 30.09 in 6.2 mi North 2.3 mph - N/A Fog Shallow Fog
7:30 AM 48.2 °F 48.2 °F 100% 30.09 in 6.2 mi SE 2.3 mph - N/A Fog Shallow Fog
8:00 AM 54 °F 54 °F 98% 30.11 in 31 mi Calm Calm - -   Scattered Clouds
8:00 AM 53.6 °F 53.6 °F 100% 30.09 in 6.2 mi Calm Calm - N/A   Mostly Cloudy
8:30 AM 57.2 °F 55.4 °F 94% 30.09 in 6.2 mi ESE 4.6 mph - N/A   Mostly Cloudy
9:00 AM 58 °F 56 °F 93% 30.11 in 31 mi ESE 4.5 mph - -   Partly Cloudy
9:00 AM 59.0 °F 57.2 °F 94% 30.09 in 6.2 mi ESE 3.5 mph - N/A   Mostly Cloudy
9:30 AM 60.8 °F 57.2 °F 88% 30.09 in 6.2 mi Variable 2.3 mph - N/A   Mostly Cloudy
10:00 AM 64 °F 56 °F 68% 30.11 in 16 mi SE 4.5 mph - -   Mostly Cloudy
10:00 AM 62.6 °F 57.2 °F 82% 30.09 in 6.2 mi SE 4.6 mph - N/A   Mostly Cloudy
10:30 AM 68.0 °F 59.0 °F 73% 30.09 in 6.2 mi SSE 8.1 mph - N/A   Mostly Cloudy
11:00 AM 68 °F 58 °F 61% 30.12 in 16 mi SE 6.7 mph - -   Scattered Clouds
11:00 AM 68.0 °F 57.2 °F 68% 30.09 in 6.2 mi SE 8.1 mph - N/A   Scattered Clouds
11:30 AM 68.0 °F 57.2 °F 68% 30.09 in 6.2 mi SE 6.9 mph - N/A   Scattered Clouds
12:00 PM 69 °F 58 °F 60% 30.11 in 16 mi ESE 8.9 mph - -   Scattered Clouds
12:00 PM 69.8 °F 59.0 °F 68% 30.09 in 6.2 mi ESE 9.2 mph - N/A   Scattered Clouds
12:30 PM 68.0 °F 59.0 °F 73% 30.09 in 6.2 mi ESE 10.4 mph - N/A   Partly Cloudy
1:00 PM 70 °F 58 °F 57% 30.10 in 12 mi SSE 11.2 mph - -   Scattered Clouds
1:00 PM 69.8 °F 59.0 °F 68% 30.09 in 6.2 mi SE 11.5 mph - N/A   Partly Cloudy
1:30 PM 69.8 °F 57.2 °F 64% 30.09 in 6.2 mi SE 10.4 mph - N/A   Partly Cloudy
2:00 PM 71 °F 58 °F 54% 30.09 in 12 mi SE 11.2 mph - -   Scattered Clouds
2:00 PM 71.6 °F 57.2 °F 60% 30.09 in 6.2 mi SE 11.5 mph - N/A   Partly Cloudy
2:30 PM 69.8 °F 57.2 °F 64% 30.09 in 6.2 mi ESE 11.5 mph - N/A   Partly Cloudy
3:00 PM 68 °F 58 °F 63% 30.09 in 16 mi ESE 11.2 mph - -   Partly Cloudy
3:00 PM 68.0 °F 57.2 °F 68% 30.06 in 6.2 mi ESE 11.5 mph - N/A   Scattered Clouds
3:30 PM 68.0 °F 57.2 °F 68% 30.06 in 6.2 mi ESE 11.5 mph - N/A   Scattered Clouds
4:00 PM 66 °F 56 °F 62% 30.09 in 19 mi ESE 8.9 mph - -   Mostly Cloudy
4:00 PM 66.2 °F 55.4 °F 68% 30.06 in 6.2 mi ESE 10.4 mph - N/A   Mostly Cloudy
4:30 PM 64.4 °F 57.2 °F 77% 30.06 in 6.2 mi ESE 11.5 mph - N/A   Mostly Cloudy
5:00 PM 64 °F 55 °F 64% 30.08 in 19 mi ESE 8.9 mph - -   Mostly Cloudy
5:00 PM 64.4 °F 55.4 °F 73% 30.06 in 6.2 mi ESE 9.2 mph - N/A   Mostly Cloudy
5:30 PM 64.4 °F 53.6 °F 68% 30.06 in 6.2 mi ESE 9.2 mph - N/A   Mostly Cloudy
6:00 PM 64 °F 54 °F 63% 30.08 in 19 mi ESE 8.9 mph - -   Mostly Cloudy
6:00 PM 64.4 °F 53.6 °F 68% 30.06 in 6.2 mi ESE 9.2 mph - N/A   Mostly Cloudy
6:30 PM 64.4 °F 53.6 °F 68% 30.06 in 6.2 mi ESE 10.4 mph - N/A   Mostly Cloudy
7:00 PM 63 °F 52 °F 59% 30.08 in 19 mi ESE 8.9 mph - -   Partly Cloudy
7:00 PM 62.6 °F 53.6 °F 72% 30.06 in 6.2 mi ESE 8.1 mph - N/A   Scattered Clouds
7:30 PM 62.6 °F 51.8 °F 68% 30.06 in 6.2 mi ESE 6.9 mph - N/A   Scattered Clouds
8:00 PM 61 °F 53 °F 67% 30.08 in 19 mi ESE 6.7 mph - -   Partly Cloudy
8:00 PM 60.8 °F 53.6 °F 77% 30.06 in 6.2 mi ESE 6.9 mph - N/A   Scattered Clouds
8:30 PM 57.2 °F 51.8 °F 82% 30.06 in 6.2 mi ESE 8.1 mph - N/A   Scattered Clouds
9:00 PM 56 °F 52 °F 82% 30.09 in 19 mi ESE 6.7 mph - -   Scattered Clouds
9:00 PM 55.4 °F 51.8 °F 88% 30.06 in 6.2 mi ESE 6.9 mph - N/A   Scattered Clouds
9:30 PM 55.4 °F 51.8 °F 88% 30.06 in 6.2 mi ESE 5.8 mph - N/A   Scattered Clouds
10:00 PM 54 °F 52 °F 91% 30.09 in 19 mi SE 6.7 mph - -   Scattered Clouds
10:00 PM 53.6 °F 51.8 °F 94% 30.06 in 6.2 mi SE 5.8 mph - N/A   Scattered Clouds
10:30 PM 53.6 °F 51.8 °F 94% 30.06 in 6.2 mi ESE 4.6 mph - N/A   Scattered Clouds
11:00 PM 54 °F 52 °F 91% 30.09 in 19 mi ESE 4.5 mph - -   Scattered Clouds
11:00 PM 53.6 °F 51.8 °F 94% 30.06 in 6.2 mi ESE 4.6 mph - N/A   Scattered Clouds
11:30 PM 53.6 °F 51.8 °F 94% 30.06 in 6.2 mi ESE 3.5 mph - N/A   Scattered Clouds